STARLINK-11711, 64378

Orbit data source: Space-Track

STARLINK-11711, 64378 is a payload satellite owned by SpaceX/Seattle (US) in LEO that was launched on Fri, 13 Jun 2025 UTC via an FALCON 9 launch vehicle from the Air Force Eastern Test Range (AFETR). Payload-class satellites include a variety of spacecraft equipped with specific instruments for various scientific and technological missions. These include communications satellites like Starlink; space stations such as the ISS; scientific satellites like the Hubble; Earth observation satellites from companies like Planet Labs, Umbra, and HawkEye 360; GPS; miniature CubeSats for education and research; and military/defense satellites.

Loading next visibility...
Identifier
64378, 2025-127J
Orbit
LEO
Country
Flag of USUS
Related business
Manufacturer
SpaceX/Seattle
Mission
Operational Commercial Communications
Bus & Motor
STARLINK V2MD, Unknown motor
Mass
960 kg wet, ~910 kg dry
Launch date (UTC)
2025-06-13 (10 months ago)
Launch vehicle
FALCON 9
Launch site
Air Force Eastern Test Range (AFETR)
Object type
Payload
Rocket body
Debris
Shape & HBR
Box + 2 Pan, 18.1 m
Radar Cross Section
36.964 m², Large (>1 m²)

Expand to show TLE details & history
Last TLE update: 6 hours ago

TLE from 6 hours ago
0 STARLINK-11711
1 64378U 25127J   26095.51303242  .00214516  00000-0  16239-2 0  9999
2 64378  42.9986 282.6148 0001828 261.6481  98.4179 15.70965022 47833
Epoch: 2026-04-05T12:18Z
TLE epoch observation values (Epoch: 2026-04-05T12:18:46.001Z)
Latitude
-0.00003°
Longitude
-95.89428°
Altitude
356.089 km
Speed
7.697 km/s
True Right ascension
18h 50m 27s
True Declination
0° 00' 00"
Sunlit
Object was in daylight at epoch
Visualization orbit readout
Latitude
Unknown
Longitude
Unknown
Altitude
Unknown
Speed
Unknown
Apparent Right ascension
Unknown
Apparent Declination
Unknown
Sunlit
N/A
Visualization observer readout
Local Sidereal Time
00:21:56
Azimuth
Unknown
Elevation
Unknown
Doppler factor
Unknown
Orbital elements
Apogee altitude
359.351 km
Perigee altitude
356.888 km
Semi-major axis
6,736.257 km
Eccentricity
0.00018
Inclination
42.9986°
RAAN
282.6148°
Arg. of periapsis
261.6481°
True anomaly
98.43862°
Mean anomaly
98.4179°
Eccentric anomaly
98.42826°
Mean motion
3.92568 °/min
Orbital period
91.7 mins
BSTAR
0.0016239
Loading maneuver chart data...
Computing Atmospheric mass density...
Loading historical data...
Loading historical data...
Loading historical data...
Loading historical data...
Loading historical data...
Loading historical data...
Loading historical data...

Documentation

Showing up to 5 results
|